Weather in Podsinee

Russia / Republic of Khakassia     53°40′14″N   91°32′46″E
temp.,
°C
wind,
m/s
gust,
m/s
humid.,
%
clouds,
%
prec.,
mm/h
press.,
hPa
HPBL,
m
22 october, fri
fri2201:00+3ese117197 0.0 101810
04:00+2se117721 0.0 101910
07:00+2se117899 0.0 101910
10:00+5se125720 0.0 1019137
13:00+10se223923 0.0 1018401
16:00+11e1140100 0.0 101745
19:00+7nne2251100 0.0 101810
22:00+6nw2253100 0.0 102110
23 october, sat
sat2301:00+6n5972100 0.0 1025532
04:00+3ssw4991100 5.0 1029561
07:00+4sw612672 5.4 1030540
10:00+5sw811625 0.0 1030837
13:00+7sw694513 0.0 10281593
16:00+7ssw46465 0.0 10261041
19:00+3sse346163 0.0 102658
22:00+2sse2279100 0.0 102533
24 october, sun
sun2401:00+3s2470100 0.1 102497
04:00+5ssw61357100 0.1 1023604
07:00+5sw7147198 0.1 1024603
10:00+6sw7126845 0.0 10231067
13:00+10sw1016545 0.0 10211219
16:00+8wsw91562100 0.0 10221080
19:00+6wsw9157691 0.0 1025641
22:00+6wsw8148486 0.0 1026513
25 october, mon
mon2501:00+5wsw51186100 0.0 1027338
04:00+5sw3588100 0.0 1027113
07:00+5ssw2386100 0.0 102651
10:00+8sw397567 0.0 1025483
13:00+10ssw4770100 0.2 1022611
16:00+12ssw47615 0.0 1021592
19:00+8sse227337 0.0 102112
22:00+7s2273100 0.0 102120
26 october, tue
tue2601:00+7ssw227598 0.0 102127
04:00+6s227741 0.0 102121
07:00+5se11815 0.0 102210
10:00+7ese11695 0.0 1022115
13:00+11ese235465 0.0 1020545
16:00+12e2455100 0.0 1017284
19:00+7ene2272100 0.0 101614
22:00+6e118188 0.0 101510